Wind_Speed
25 25 25 25 25 25 24 24 23 24 25 25 25 25 26 26 26 25 25 25 25 26 26 27 27 27 29 31 32 32 33 32 34 35 36 39 38 42 40 42 43 45 47 49 50 52 53 54 52 49 50 50 49 51
24 25 26 27 27 27 26 26 26 27 26 24 23 21 21 21 19 20 20 20 22 22 22 23 23 23 25 26 28 30 31 33 34 37 38 40 41 43 43 44 47 45 48 49 50 50 51 47 51 52 51 50 51 50
23 25 26 27 28 29 29 28 28 26 24 21 19 15 17 16 14 16 17 17 17 19 20 20 22 23 25 27 29 31 33 35 36 37 39 41 43 44 44 46 45 48 47 47 45 44 47 52 47 49 52 53 48 49
24 24 25 27 28 29 28 26 26 25 23 20 19 16 15 15 16 17 15 15 18 19 20 22 25 26 28 30 32 34 36 37 39 40 40 42 43 44 43 44 45 43 46 44 45 46 48 48 47 48 48 48 50 50
28 29 30 30 31 30 29 28 27 25 23 21 20 18 16 15 16 16 18 19 21 22 23 25 26 27 28 30 33 35 36 37 38 39 39 39 40 43 42 41 38 38 39 42 43 43 44 42 43 44 47 49 50 51
30 31 33 34 34 32 30 29 27 26 25 22 20 20 20 20 20 19 20 21 21 22 24 26 27 28 29 29 31 33 33 34 34 33 33 31 33 36 36 34 33 34 37 40 40 38 37 37 40 43 46 48 48 47
32 33 32 32 32 30 30 29 28 26 25 26 24 23 22 22 21 21 20 20 21 22 23 23 22 24 25 26 25 24 22 21 21 21 22 26 30 31 31 31 32 34 36 34 37 39 37 38 37 36 38 39 42 45
30 27 31 28 26 26 29 29 27 25 23 25 24 22 22 21 20 20 19 19 19 19 19 19 18 17 18 18 17 19 20 22 22 25 25 27 28 29 28 29 30 31 32 31 32 36 39 41 39 37 36 36 35 37
30 28 29 30 29 28 27 24 24 24 25 23 23 22 20 19 19 18 18 16 16 16 15 13 12 14 16 17 18 20 21 16 14 25 30 30 31 30 31 31 30 26 26 27 28 31 34 38 40 39 37 36 36 36
29 28 29 22 14 22 26 25 30 26 22 22 22 21 20 20 18 15 14 14 14 11 10 11 12 15 18 17 18 18 15 19 29 34 32 29 29 30 30 29 30 28 27 28 29 29 30 33 35 36 36 36 38 38
30 27 26 23 22 25 23 21 21 24 25 23 23 25 25 19 10 12 12 11 11 10 10 11 15 16 16 16 17 18 22 25 27 29 28 27 28 29 29 29 28 28 28 28 31 30 31 34 35 32 31 33 35 35
27 25 26 26 25 20 16 19 19 22 25 26 27 20 14 10 10 11 10 10 10 11 11 13 13 14 14 16 17 17 20 23 26 27 28 27 23 25 25 24 24 24 25 27 26 27 28 24 24 28 30 29 30 28
26 22 25 26 22 17 16 16 14 15 15 15 14 12 9 10 10 9 10 11 11 11 13 13 13 13 18 19 17 19 22 22 24 25 25 24 22 18 21 18 16 19 21 23 24 26 23 25 22 24 22 23 25 24
23 21 22 20 14 10 11 14 13 11 12 12 10 9 10 9 8 9 11 12 12 13 15 17 15 15 18 20 18 21 22 24 24 24 22 21 20 20 20 21 26 20 21 19 15 15 19 19 20 19 18 17 21 22
19 20 20 16 12 6 5 8 9 11 9 10 10 11 9 7 8 10 11 11 13 16 16 16 17 21 23 24 22 23 23 23 25 23 22 20 19 19 18 16 18 20 13 9 12 16 17 13 16 15 13 12 11 4
16 17 16 11 7 4 5 8 8 9 10 10 11 9 7 7 8 9 10 11 14 16 16 17 18 20 21 25 24 24 22 23 24 24 22 18 19 21 19 15 17 19 7 8 10 16 15 13 3 8 10 8 7 4
14 16 13 10 6 6 8 8 8 8 8 9 9 7 8 9 9 10 12 14 15 17 17 16 19 25 29 26 25 22 21 22 22 23 22 18 18 19 18 15 16 15 10 6 11 11 4 11 5 7 9 7 5 2
13 13 10 9 7 9 8 7 7 7 8 9 8 8 9 10 10 10 12 15 16 16 20 19 21 24 28 26 28 28 24 20 23 22 20 18 17 17 15 13 14 13 5 4 9 12 14 13 17 14 8 10 15 14
12 11 10 8 8 9 7 7 7 7 7 7 6 7 9 10 11 13 16 17 18 19 20 20 23 27 25 22 27 28 19 17 20 20 19 18 16 15 13 11 11 13 10 10 6 12 14 13 11 15 16 10 12 18
11 12 8 10 10 8 6 6 6 5 5 5 6 7 9 10 12 14 16 18 19 22 20 21 25 22 22 20 19 20 17 17 16 15 14 14 13 12 12 9 8 9 10 6 6 10 13 13 11 16 16 15 10 14
12 6 11 10 8 6 4 4 4 3 4 5 7 9 9 10 12 10 14 17 20 18 19 18 18 18 19 18 18 16 15 14 14 13 12 11 9 10 10 11 9 7 7 7 7 9 10 10 11 11 11 11 12 13
11 14 11 8 6 5 4 3 2 2 1 4 7 8 10 11 9 16 21 19 16 16 17 19 21 18 17 17 15 13 13 12 14 14 12 10 6 6 6 8 9 8 7 8 8 7 9 10 8 7 7 7 7 6
13 10 9 8 7 6 6 5 4 2 0 4 5 8 10 9 10 15 15 14 16 16 16 16 16 15 15 14 11 10 9 8 8 8 7 4 5 3 5 4 5 7 8 7 8 8 8 8 9 9 7 6 5 2
11 10 9 9 8 7 7 5 4 3 3 5 8 7 7 7 15 20 18 18 18 17 16 14 14 14 13 11 11 10 9 10 8 7 7 4 1 3 4 3 3 2 3 7 8 8 9 10 10 11 13 13 11 9
11 10 10 9 8 7 6 5 5 4 4 6 10 12 13 14 14 14 15 17 17 16 13 11 10 8 10 9 7 8 10 13 13 10 6 5 5 5 3 3 4 3 2 2 3 6 8 10 11 13 16 17 18 18
10 10 9 9 6 5 5 4 3 1 3 4 6 9 11 16 14 14 14 15 14 12 11 11 12 13 12 10 9 10 12 12 13 14 14 12 10 8 6 5 4 2 2 3 4 4 5 8 11 13 15 16 18 20
7 7 7 5 3 2 2 1 2 1 2 4 7 10 12 11 12 12 13 12 12 12 12 12 13 13 14 13 12 12 13 13 14 15 15 16 16 16 14 13 12 9 6 5 5 5 5 7 8 9 10 14 20 26
4 5 4 3 3 3 2 2 2 1 1 4 4 7 8 9 10 11 12 11 10 11 12 13 14 15 16 15 14 15 15 16 17 19 19 20 20 19 18 16 14 13 12 11 9 9 8 9 11 13 17 22 24 17
4 4 4 5 5 6 6 6 5 4 4 4 4 5 6 7 6 7 8 9 10 10 10 11 12 13 15 15 15 15 15 16 16 16 17 17 17 18 17 18 18 18 18 16 15 14 14 14 12 8 11 15 16 13
4 4 6 7 7 7 5 6 7 6 4 3 5 3 3 4 5 6 6 7 8 8 8 8 10 10 10 11 12 13 13 14 14 14 15 14 14 14 15 15 15 15 15 14 13 13 13 14 17 19 18 18 18 16
7 7 6 7 7 7 5 7 7 6 4 4 3 3 1 2 4 5 5 6 6 6 6 6 7 7 8 9 10 10 11 11 11 11 11 11 11 11 12 12 13 13 13 13 13 14 15 15 17 18 21 24 24 22
7 7 8 9 8 6 5 10 12 10 7 5 5 6 3 1 2 3 5 5 6 5 6 6 5 6 7 9 11 11 10 10 10 10 10 11 11 12 12 12 12 12 12 11 11 12 13 14 15 17 19 21 22 25
7 7 8 4 3 2 1 3 6 5 5 7 7 6 5 3 1 1 4 5 6 6 6 6 6 7 8 8 9 9 9 9 9 10 10 10 10 10 11 11 11 12 12 12 12 13 13 13 14 15 16 18 18 19
Wind_Direction
278 275 274 274 274 273 274 276 279 283 286 284 283 279 274 269 266 261 259 257 256 257 259 258 260 265 269 270 271 270 268 268 267 266 266 266 265 266 266 265 265 266 266 265 265 265 265 268 271 269 269 269 265 267
281 279 274 273 273 274 275 275 281 284 286 289 288 282 271 261 256 255 253 253 256 257 257 258 262 266 268 268 268 270 271 271 270 270 268 268 268 268 268 269 266 266 265 266 266 267 268 269 268 268 266 263 264 267
287 284 280 275 273 273 273 274 275 276 282 286 284 275 264 256 248 250 254 250 247 258 255 259 264 265 267 270 271 274 275 274 272 271 271 271 270 270 270 270 270 271 266 265 263 263 262 264 266 265 263 264 265 265
297 298 294 287 279 274 267 267 269 268 271 275 271 264 266 260 253 255 252 252 267 265 263 267 268 270 271 273 275 276 275 275 275 276 276 276 274 273 273 272 271 271 270 268 265 264 263 263 264 265 267 265 264 264
296 293 291 290 285 276 266 266 264 262 260 265 260 257 265 266 259 257 261 266 266 267 269 271 273 275 277 278 279 280 280 279 279 279 278 278 277 275 273 272 272 271 269 268 267 265 266 265 264 264 264 262 262 263
296 293 291 286 280 272 264 263 260 257 253 253 257 259 258 262 265 265 265 264 267 271 274 276 278 281 283 284 283 284 283 283 283 285 284 282 279 278 278 276 272 267 265 266 267 267 268 265 263 262 260 259 258 259
302 300 297 291 278 269 260 260 256 253 249 251 255 257 259 262 264 265 266 269 272 274 276 279 282 285 286 287 287 289 292 294 296 297 295 290 287 284 282 281 276 273 273 270 267 269 267 266 264 265 267 265 263 262
305 303 305 290 278 280 261 265 250 249 251 250 249 252 257 260 263 267 273 274 278 278 280 284 287 288 290 292 293 293 294 294 293 295 296 294 293 290 291 284 280 278 277 276 272 267 266 265 267 269 270 270 269 266
309 299 310 291 277 278 261 264 250 252 248 248 248 250 255 258 266 272 271 272 275 277 281 282 283 287 292 295 298 303 303 300 306 314 311 301 292 291 285 281 280 281 277 275 276 272 271 271 271 273 275 272 272 271
310 304 312 309 277 276 271 264 268 252 243 243 243 244 246 254 265 262 265 267 271 267 273 276 291 298 303 306 308 305 290 295 307 310 308 301 297 292 285 279 277 276 278 282 281 277 277 275 276 276 275 272 269 269
313 305 307 307 299 291 276 260 247 235 232 239 247 248 263 261 242 249 256 253 258 264 272 293 303 303 304 305 304 304 305 307 309 313 308 305 296 287 285 280 276 275 277 280 281 280 290 280 279 268 278 282 276 267
312 303 306 310 305 288 260 248 251 244 251 249 252 265 231 223 234 240 239 251 259 268 286 302 303 301 310 311 305 310 312 314 316 318 315 312 294 286 285 279 277 278 278 280 286 290 292 290 289 279 275 272 270 267
310 304 311 308 304 278 264 245 234 234 238 233 221 194 208 217 221 230 247 258 265 277 289 297 290 303 312 315 309 303 305 313 322 322 318 310 303 292 289 282 286 287 283 277 283 294 291 302 306 304 293 273 268 260
309 310 317 311 313 286 248 230 224 210 203 176 187 195 205 205 224 247 254 264 276 289 295 300 281 297 310 319 312 309 311 313 322 324 320 311 309 288 303 287 289 291 291 289 305 306 313 320 314 323 324 312 276 252
304 313 317 316 318 288 195 181 186 177 170 185 191 193 194 213 243 260 264 275 291 298 303 298 288 291 297 305 307 305 307 311 320 323 318 309 305 299 303 288 294 302 286 354 322 324 318 315 338 341 346 354 355 296
298 308 315 315 313 270 180 169 179 185 186 188 191 190 210 243 263 269 277 287 294 301 302 298 297 299 306 311 308 308 308 310 314 316 314 305 304 298 302 300 304 300 313 352 348 335 334 298 334 8 9 13 11 0
290 305 305 307 297 219 181 191 188 189 191 193 190 210 243 265 272 270 282 298 300 304 299 302 304 303 304 305 307 302 300 304 309 309 313 303 298 298 308 307 309 314 316 24 6 10 7 346 335 34 5 345 333 306
278 301 302 294 255 203 190 192 197 194 189 194 202 230 263 278 283 292 296 296 300 295 294 297 302 317 313 303 296 293 296 302 303 302 307 303 287 296 308 303 315 309 275 87 43 20 28 9 7 354 29 11 14 7
276 290 298 266 214 182 193 202 201 195 196 205 219 255 284 292 297 302 305 304 302 300 297 291 301 315 316 303 291 303 305 300 298 304 308 300 288 280 292 298 307 308 308 275 332 333 334 3 24 25 30 36 9 13
278 289 268 195 168 183 198 202 199 200 206 228 250 273 293 295 302 310 311 308 308 311 310 302 305 310 311 309 315 321 308 295 296 298 301 298 289 279 274 282 283 295 313 293 337 340 349 360 3 25 40 46 35 24
282 238 167 155 177 189 183 178 191 211 240 266 276 286 296 299 311 317 327 327 324 314 312 316 323 325 314 303 303 314 311 303 303 303 298 304 298 284 273 267 273 286 288 297 315 322 331 355 2 358 21 34 51 57
159 147 162 167 165 160 153 164 191 198 257 313 301 296 303 305 295 314 314 319 318 326 328 323 320 317 315 320 319 311 308 318 324 315 299 280 281 290 301 286 274 263 277 285 292 298 316 330 335 353 1 15 39 47
159 156 152 147 142 136 137 129 124 114 313 345 349 331 326 324 322 331 332 330 328 327 323 319 313 315 321 319 319 327 335 336 332 336 333 283 242 257 287 308 288 266 257 264 275 286 291 298 313 321 327 331 337 352
148 148 145 140 138 138 131 125 110 101 65 33 11 14 7 349 343 342 346 343 340 333 324 315 310 314 315 335 2 10 4 356 351 357 11 20 339 268 278 312 334 309 269 263 275 280 287 293 296 299 303 303 300 294
153 152 149 146 143 140 134 111 126 118 45 38 35 19 4 351 352 353 348 353 348 343 341 336 337 357 11 21 18 22 28 21 29 34 27 29 45 24 335 297 290 291 303 294 291 296 298 299 300 301 298 296 294 290
159 160 161 160 153 148 152 141 129 81 39 33 348 349 354 3 8 5 5 5 9 21 37 47 50 45 45 49 53 56 49 39 39 48 56 54 50 45 26 15 7 349 317 299 304 308 306 303 302 301 301 300 298 293
156 164 171 174 178 169 152 124 338 311 5 358 6 4 358 5 8 15 19 21 26 35 43 53 56 55 54 52 53 59 58 56 58 58 58 57 54 50 48 49 53 58 64 61 48 31 10 350 340 332 322 311 310 306
170 178 187 193 197 208 232 252 283 251 311 12 357 357 7 13 16 24 27 34 40 47 53 62 68 69 67 64 63 63 61 61 62 63 62 64 63 62 61 61 64 64 59 56 51 40 20 356 340 330 326 321 322 329
210 214 218 223 233 246 250 240 237 249 272 324 331 342 340 13 19 31 34 40 47 52 55 61 66 69 70 67 63 62 60 58 56 56 58 57 56 56 57 59 62 66 67 67 66 64 56 46 37 24 12 23 19 8
197 208 223 239 253 262 259 246 246 258 258 290 320 282 317 6 35 38 33 34 36 43 47 50 55 56 59 61 57 51 50 50 47 45 46 48 50 54 55 56 54 51 49 46 43 40 40 39 39 39 35 32 29 19
230 253 267 268 252 241 247 246 239 256 268 280 252 213 267 359 36 49 39 29 25 24 30 35 44 47 47 54 57 51 45 42 41 38 35 35 34 37 42 44 46 45 41 36 35 34 33 32 33 32 32 34 36 35
243 252 260 265 270 282 264 242 240 250 253 243 213 208 211 284 356 40 46 41 34 31 35 36 39 50 53 56 58 52 47 44 42 39 34 32 30 29 33 33 32 34 35 33 27 25 26 26 26 29 32 34 36 38
227 229 246 173 160 108 136 180 193 204 186 183 185 194 205 215 244 14 42 42 45 46 46 48 51 57 59 59 59 51 40 35 34 31 25 24 23 21 22 24 24 25 27 28 29 28 25 23 22 22 24 27 30 35
Height
5770 5770 5770 5770 5770 5770 5769 5769 5769 5769 5768 5766 5765 5765 5764 5764 5765 5765 5766 5767 5769 5770 5771 5772 5773 5774 5775 5776 5777 5778 5779 5779 5779 5779 5779 5778 5779 5777 5780 5778 5779 5778 5778 5778 5777 5776 5777 5775 5777 5779 5778 5777 5777 5777
5764 5763 5762 5762 5762 5762 5762 5762 5761 5761 5760 5758 5757 5756 5756 5756 5757 5758 5759 5760 5761 5763 5764 5764 5765 5767 5767 5767 5768 5767 5768 5768 5768 5767 5768 5766 5766 5765 5765 5764 5763 5765 5762 5763 5762 5760 5760 5761 5759 5758 5759 5760 5760 5762
5757 5756 5755 5754 5754 5753 5753 5753 5753 5753 5753 5752 5750 5749 5750 5750 5751 5752 5753 5753 5755 5756 5757 5758 5759 5759 5759 5759 5759 5759 5758 5758 5757 5755 5754 5753 5753 5752 5751 5749 5748 5746 5746 5745 5746 5750 5745 5743 5746 5744 5743 5744 5748 5748
5751 5749 5747 5746 5745 5744 5744 5744 5744 5745 5745 5745 5745 5744 5745 5745 5746 5746 5747 5747 5748 5749 5749 5751 5750 5751 5750 5750 5749 5748 5747 5746 5745 5743 5741 5739 5738 5737 5735 5733 5732 5731 5728 5728 5729 5729 5728 5729 5730 5728 5729 5729 5729 5731
5743 5742 5740 5738 5736 5735 5735 5735 5735 5736 5737 5738 5738 5738 5739 5739 5740 5740 5740 5741 5741 5743 5742 5742 5742 5741 5740 5739 5738 5737 5735 5733 5731 5729 5727 5725 5723 5721 5720 5720 5719 5716 5715 5713 5713 5713 5713 5716 5715 5713 5711 5712 5712 5713
5735 5732 5730 5727 5725 5725 5725 5725 5726 5727 5728 5730 5731 5732 5732 5733 5733 5734 5735 5735 5734 5735 5734 5734 5733 5731 5730 5729 5728 5726 5724 5722 5719 5717 5715 5713 5710 5708 5708 5708 5707 5704 5702 5700 5700 5700 5700 5701 5698 5697 5696 5695 5696 5698
5726 5722 5719 5716 5714 5714 5714 5715 5716 5718 5719 5721 5723 5724 5725 5725 5726 5727 5728 5728 5727 5727 5726 5725 5724 5723 5721 5720 5718 5716 5714 5712 5710 5709 5706 5703 5700 5699 5698 5696 5694 5692 5690 5690 5688 5687 5688 5686 5685 5685 5683 5682 5683 5684
5718 5714 5711 5707 5706 5705 5705 5705 5707 5709 5710 5712 5714 5716 5717 5718 5719 5720 5719 5719 5718 5718 5718 5717 5716 5715 5714 5712 5711 5709 5708 5706 5704 5701 5699 5696 5693 5689 5688 5685 5683 5681 5680 5679 5677 5676 5675 5674 5673 5673 5671 5671 5670 5670
5710 5706 5702 5698 5696 5696 5696 5697 5699 5701 5702 5704 5706 5708 5710 5710 5711 5711 5711 5711 5711 5713 5711 5710 5710 5710 5708 5707 5705 5703 5700 5698 5697 5694 5691 5689 5684 5680 5678 5676 5673 5672 5671 5669 5667 5665 5663 5661 5660 5660 5659 5658 5657 5656
5702 5698 5693 5689 5688 5688 5687 5688 5691 5692 5695 5697 5699 5700 5702 5702 5703 5705 5704 5705 5705 5705 5705 5705 5704 5704 5703 5700 5698 5697 5694 5693 5689 5686 5682 5679 5675 5671 5667 5665 5663 5662 5661 5659 5658 5656 5654 5651 5649 5648 5646 5645 5643 5641
5694 5690 5687 5684 5680 5678 5677 5679 5681 5684 5687 5689 5691 5693 5695 5695 5696 5698 5699 5700 5701 5701 5701 5700 5699 5698 5696 5694 5692 5690 5687 5685 5681 5678 5673 5670 5666 5660 5658 5656 5653 5652 5652 5651 5648 5646 5644 5641 5638 5636 5634 5631 5629 5627
5687 5683 5681 5676 5673 5671 5672 5674 5675 5677 5679 5682 5684 5686 5687 5689 5692 5694 5694 5696 5696 5696 5696 5695 5694 5692 5690 5689 5686 5684 5681 5678 5674 5670 5665 5660 5655 5652 5650 5648 5646 5644 5643 5642 5640 5637 5634 5630 5627 5624 5621 5619 5616 5615
5682 5678 5675 5670 5666 5665 5665 5667 5668 5671 5673 5675 5678 5680 5683 5686 5688 5689 5690 5690 5691 5691 5691 5690 5688 5687 5684 5683 5680 5678 5674 5672 5668 5663 5658 5654 5649 5647 5644 5643 5641 5638 5636 5634 5632 5629 5625 5621 5617 5614 5610 5608 5606 5605
5675 5673 5669 5664 5661 5659 5659 5661 5664 5667 5669 5672 5675 5678 5680 5683 5685 5685 5686 5687 5687 5686 5685 5685 5683 5682 5679 5678 5674 5671 5669 5665 5661 5657 5653 5649 5644 5642 5639 5637 5636 5634 5631 5629 5625 5622 5619 5615 5612 5607 5603 5599 5595 5596
5671 5668 5664 5660 5658 5658 5658 5660 5663 5665 5668 5671 5674 5676 5679 5680 5681 5681 5682 5683 5682 5682 5681 5679 5678 5676 5674 5671 5668 5665 5662 5659 5655 5651 5647 5644 5640 5637 5634 5633 5631 5629 5626 5623 5621 5617 5614 5611 5608 5604 5600 5596 5592 5590
5667 5665 5662 5659 5658 5658 5659 5661 5663 5666 5668 5670 5672 5675 5676 5678 5678 5678 5678 5679 5678 5676 5675 5674 5672 5670 5668 5665 5662 5658 5656 5653 5650 5646 5642 5639 5636 5633 5630 5629 5627 5624 5622 5621 5618 5615 5611 5606 5604 5602 5599 5596 5593 5592
5662 5661 5659 5658 5658 5658 5660 5662 5664 5665 5667 5669 5671 5672 5673 5674 5674 5675 5675 5674 5673 5672 5669 5667 5666 5664 5661 5658 5655 5652 5649 5646 5643 5641 5637 5634 5631 5629 5627 5625 5624 5621 5620 5618 5616 5614 5610 5606 5603 5599 5599 5596 5594 5592
5659 5658 5657 5656 5656 5658 5660 5661 5663 5664 5666 5668 5669 5670 5671 5671 5671 5671 5671 5670 5669 5666 5664 5663 5660 5657 5652 5650 5647 5643 5641 5639 5637 5634 5631 5629 5627 5625 5624 5622 5620 5619 5617 5616 5613 5612 5610 5607 5603 5600 5599 5597 5594 5592
5655 5654 5654 5654 5655 5657 5659 5661 5662 5664 5666 5667 5668 5668 5668 5668 5668 5667 5666 5664 5662 5660 5658 5655 5652 5649 5646 5642 5640 5636 5634 5632 5629 5627 5625 5623 5621 5621 5620 5619 5618 5617 5615 5614 5613 5611 5610 5608 5605 5602 5600 5598 5596 5593
5651 5651 5651 5652 5655 5657 5659 5660 5662 5663 5664 5666 5666 5666 5666 5665 5664 5663 5660 5658 5655 5653 5651 5648 5646 5642 5639 5636 5633 5631 5628 5626 5624 5622 5620 5617 5616 5616 5616 5616 5616 5615 5614 5613 5613 5612 5610 5609 5607 5605 5603 5601 5599 5597
5648 5648 5650 5652 5654 5656 5658 5660 5661 5662 5663 5664 5664 5663 5663 5662 5660 5658 5656 5653 5650 5647 5645 5643 5639 5636 5633 5630 5627 5624 5622 5620 5618 5616 5614 5613 5612 5612 5612 5612 5612 5612 5612 5612 5612 5611 5610 5610 5609 5608 5607 5606 5604 5602
5646 5648 5650 5652 5654 5656 5658 5659 5660 5661 5662 5662 5661 5660 5660 5659 5657 5655 5652 5649 5646 5643 5641 5638 5635 5632 5628 5625 5622 5620 5618 5616 5613 5611 5609 5608 5608 5608 5608 5607 5608 5609 5610 5610 5610 5610 5609 5609 5609 5609 5609 5609 5608 5607
5647 5649 5651 5653 5655 5656 5659 5659 5660 5661 5661 5661 5660 5659 5657 5656 5655 5653 5649 5646 5643 5640 5637 5634 5631 5628 5625 5622 5619 5616 5614 5612 5611 5608 5606 5605 5605 5605 5605 5605 5605 5606 5607 5607 5608 5608 5608 5608 5608 5608 5608 5608 5609 5609
5648 5650 5652 5653 5655 5657 5658 5659 5660 5660 5661 5660 5660 5658 5657 5655 5653 5650 5646 5642 5639 5636 5633 5630 5628 5625 5622 5620 5617 5615 5614 5611 5609 5606 5605 5603 5603 5603 5603 5603 5603 5603 5603 5604 5605 5606 5606 5606 5606 5606 5606 5606 5607 5608
5651 5653 5654 5655 5656 5658 5659 5660 5660 5660 5661 5661 5660 5659 5657 5654 5651 5647 5644 5641 5637 5634 5630 5628 5625 5623 5621 5618 5617 5616 5614 5611 5609 5607 5605 5604 5603 5602 5602 5602 5602 5602 5602 5602 5603 5603 5604 5603 5604 5603 5602 5602 5601 5601
5651 5653 5654 5655 5657 5658 5659 5660 5660 5660 5661 5660 5660 5658 5656 5654 5651 5648 5645 5642 5638 5635 5632 5629 5627 5624 5622 5621 5619 5617 5615 5614 5612 5610 5608 5606 5604 5603 5603 5602 5601 5601 5601 5601 5601 5601 5601 5601 5600 5599 5598 5597 5596 5595
5652 5653 5655 5656 5658 5658 5659 5660 5660 5660 5660 5660 5659 5658 5656 5654 5652 5650 5646 5644 5641 5638 5635 5632 5630 5628 5626 5625 5623 5621 5620 5618 5615 5613 5611 5609 5608 5606 5605 5604 5602 5602 5601 5601 5600 5600 5600 5599 5598 5597 5595 5593 5590 5587
5652 5654 5655 5656 5657 5658 5658 5658 5658 5659 5659 5659 5659 5658 5656 5655 5653 5650 5648 5646 5643 5641 5639 5636 5634 5632 5630 5629 5628 5626 5624 5622 5620 5618 5616 5614 5612 5611 5610 5608 5606 5605 5604 5604 5604 5603 5602 5600 5599 5597 5595 5590 5584 5579
5652 5653 5654 5655 5655 5656 5657 5657 5657 5658 5658 5658 5658 5657 5657 5655 5654 5651 5649 5648 5646 5644 5642 5640 5638 5636 5634 5633 5631 5630 5628 5627 5625 5624 5621 5619 5618 5617 5615 5613 5612 5611 5609 5609 5607 5606 5604 5602 5600 5598 5595 5590 5584 5579
5651 5652 5653 5653 5653 5654 5655 5655 5655 5656 5656 5657 5656 5656 5655 5655 5653 5652 5650 5649 5647 5646 5644 5643 5641 5640 5638 5636 5634 5633 5632 5630 5629 5627 5626 5624 5623 5621 5620 5618 5616 5615 5614 5612 5610 5608 5606 5604 5601 5598 5594 5590 5585 5580
5649 5650 5650 5650 5651 5652 5652 5652 5653 5653 5654 5655 5655 5655 5655 5654 5653 5652 5651 5650 5648 5647 5646 5644 5643 5642 5640 5639 5637 5635 5634 5633 5631 5630 5629 5627 5626 5624 5623 5621 5620 5618 5616 5615 5613 5611 5609 5606 5602 5599 5595 5592 5587 5583
5648 5648 5648 5648 5648 5649 5648 5649 5650 5651 5652 5652 5653 5653 5654 5654 5653 5652 5652 5650 5649 5648 5647 5645 5644 5643 5642 5640 5638 5637 5636 5635 5634 5632 5631 5629 5628 5626 5624 5623 5621 5619 5618 5616 5614 5612 5610 5608 5605 5602 5599 5595 5591 5587
5645 5646 5645 5646 5646 5646 5647 5646 5647 5648 5649 5650 5651 5652 5652 5653 5653 5652 5651 5651 5650 5649 5647 5646 5645 5644 5642 5641 5640 5639 5638 5637 5636 5635 5633 5632 5630 5628 5626 5624 5623 5621 5619 5618 5616 5614 5612 5610 5607 5605 5602 5599 5596 5593